PGT2DK LTBJ-LTAW

Flight info

Callsign PGT2DK
Flight time 1h 12m
Altitude 37000
Route KULAR UT54 KFK UR32 HALIL UW77 BAG UW71 BUK UL615 HAKCE
Aircraft A20N/M-SDE2E3FGHIRWXY/LB1

Departure

Time 2026-04-28 19:49
Airport Adnan Menderes International Airport (LTBJ)

Arrival

Time 2026-04-28 21:01
Airport Tokat Airport (LTAW)
Time Latitude Longitude Altitude Speed Heading
2026-04-28 19:28 38.29242 27.15036 417 ft 0 kts 257°
2026-04-28 19:40 38.29244 27.15045 414 ft 2 kts 255°
2026-04-28 19:40 38.29248 27.15065 413 ft 2 kts 253°
2026-04-28 19:40 38.29253 27.15085 414 ft 2 kts 250°
2026-04-28 19:40 38.29260 27.15104 413 ft 2 kts 244°
2026-04-28 19:41 38.29268 27.15122 411 ft 2 kts 233°
2026-04-28 19:41 38.29279 27.15137 411 ft 2 kts 210°
2026-04-28 19:41 38.29295 27.15142 414 ft 2 kts 177°
2026-04-28 19:41 38.29304 27.15141 413 ft 1 kts 167°
2026-04-28 19:42 38.29305 27.15141 413 ft 0 kts 166°
2026-04-28 19:44 38.29282 27.15147 411 ft 7 kts 167°
2026-04-28 19:44 38.29213 27.15168 412 ft 12 kts 167°
2026-04-28 19:44 38.29133 27.15192 415 ft 11 kts 167°
2026-04-28 19:45 38.29056 27.15215 417 ft 11 kts 167°
2026-04-28 19:45 38.29009 27.15272 418 ft 10 kts 115°
2026-04-28 19:45 38.28945 27.15315 419 ft 14 kts 167°
2026-04-28 19:45 38.28829 27.15350 417 ft 20 kts 167°
2026-04-28 19:46 38.28670 27.15397 417 ft 26 kts 167°
2026-04-28 19:46 38.28492 27.15453 416 ft 26 kts 166°
2026-04-28 19:46 38.28316 27.15504 420 ft 26 kts 167°
2026-04-28 19:46 38.28144 27.15556 417 ft 25 kts 166°
2026-04-28 19:47 38.27974 27.15607 416 ft 25 kts 166°
2026-04-28 19:47 38.27807 27.15658 419 ft 25 kts 166°
2026-04-28 19:47 38.27759 27.15737 415 ft 12 kts 84°
2026-04-28 19:47 38.27781 27.15845 416 ft 13 kts 76°
2026-04-28 19:48 38.27827 27.15905 417 ft 9 kts 352°
2026-04-28 19:48 38.27889 27.15887 416 ft 14 kts 347°
2026-04-28 19:48 38.28171 27.15803 420 ft 74 kts 347°
2026-04-28 19:48 38.28881 27.15591 417 ft 134 kts 347°
2026-04-28 19:49 38.29894 27.15301 694 ft 151 kts 350°
2026-04-28 19:49 38.30881 27.15015 1332 ft 143 kts 347°
2026-04-28 19:49 38.31907 27.14673 1685 ft 170 kts 348°
2026-04-28 19:49 38.33167 27.14323 1969 ft 199 kts 351°
2026-04-28 19:50 38.36288 27.13546 2657 ft 255 kts 350°
2026-04-28 19:50 38.38056 27.13271 3468 ft 259 kts
2026-04-28 19:50 38.39683 27.14081 4499 ft 254 kts 36°
2026-04-28 19:51 38.40913 27.15719 5478 ft 259 kts 50°
2026-04-28 19:51 38.41997 27.17614 6404 ft 264 kts 53°
2026-04-28 19:51 38.43073 27.19552 7216 ft 272 kts 53°
2026-04-28 19:51 38.44126 27.21579 8154 ft 275 kts 61°
2026-04-28 19:52 38.44804 27.23872 9137 ft 279 kts 72°
2026-04-28 19:52 38.45281 27.26286 10077 ft 283 kts 75°
2026-04-28 19:52 38.45737 27.28802 10617 ft 301 kts 74°
2026-04-28 19:52 38.46235 27.31544 11019 ft 322 kts 73°
2026-04-28 19:53 38.46747 27.34388 11663 ft 333 kts 76°
2026-04-28 19:53 38.47146 27.37372 12526 ft 339 kts 78°
2026-04-28 19:53 38.47481 27.40460 13390 ft 345 kts 80°
2026-04-28 19:53 38.47803 27.43557 14191 ft 350 kts 79°
2026-04-28 19:54 38.48125 27.46658 14928 ft 355 kts 79°
2026-04-28 19:54 38.48454 27.49809 15680 ft 360 kts 80°
2026-04-28 19:54 38.48849 27.53029 16447 ft 364 kts 78°
2026-04-28 19:54 38.49292 27.56236 17202 ft 369 kts 78°
2026-04-28 19:55 38.49754 27.59519 17945 ft 374 kts 78°
2026-04-28 19:55 38.50217 27.62809 18627 ft 378 kts 78°
2026-04-28 19:55 38.50677 27.66092 19264 ft 382 kts 78°
2026-04-28 19:55 38.51145 27.69445 19919 ft 385 kts 77°
2026-04-28 19:56 38.51615 27.72827 20570 ft 389 kts 77°
2026-04-28 19:56 38.51934 27.75126 21006 ft 391 kts 77°
2026-04-28 19:56 38.52412 27.78575 21652 ft 394 kts 77°
2026-04-28 19:56 38.52892 27.82044 22287 ft 398 kts 77°
2026-04-28 19:57 38.53375 27.85545 22898 ft 402 kts 77°
2026-04-28 19:57 38.53860 27.89077 23503 ft 405 kts 77°
2026-04-28 19:57 38.54349 27.92637 24012 ft 409 kts 77°
2026-04-28 19:57 38.54840 27.96229 24504 ft 412 kts 77°
2026-04-28 19:58 38.55333 27.99840 24991 ft 414 kts 77°
2026-04-28 19:58 38.55830 28.03489 25474 ft 417 kts 77°
2026-04-28 19:58 38.56327 28.07149 25947 ft 419 kts 77°
2026-04-28 19:58 38.56825 28.10820 26426 ft 421 kts 77°
2026-04-28 19:59 38.57326 28.14525 26898 ft 423 kts 77°
2026-04-28 19:59 38.57828 28.18244 27325 ft 426 kts 77°
2026-04-28 19:59 38.58329 28.21991 27745 ft 429 kts 77°
2026-04-28 19:59 38.58632 28.25799 28167 ft 434 kts 84°
2026-04-28 20:00 38.58661 28.29679 28576 ft 438 kts 87°
2026-04-28 20:00 38.58621 28.33582 28955 ft 441 kts 87°
2026-04-28 20:00 38.58568 28.37515 29359 ft 444 kts 87°
2026-04-28 20:00 38.58516 28.41467 29767 ft 446 kts 87°
2026-04-28 20:01 38.58464 28.45452 30155 ft 448 kts 87°
2026-04-28 20:01 38.58412 28.49434 30458 ft 451 kts 87°
2026-04-28 20:01 38.58359 28.53456 30751 ft 453 kts 87°
2026-04-28 20:01 38.58305 28.57488 31120 ft 454 kts 87°
2026-04-28 20:02 38.58264 28.61516 31532 ft 452 kts 85°
2026-04-28 20:02 38.58454 28.65509 31925 ft 450 kts 81°
2026-04-28 20:02 38.58787 28.69475 32327 ft 448 kts 79°
2026-04-28 20:02 38.59182 28.73425 32705 ft 448 kts 78°
2026-04-28 20:03 38.59603 28.77373 33082 ft 447 kts 78°
2026-04-28 20:03 38.60028 28.81302 33446 ft 447 kts 78°
2026-04-28 20:03 38.60448 28.85235 33800 ft 447 kts 78°
2026-04-28 20:03 38.60859 28.89170 34140 ft 446 kts 78°
2026-04-28 20:04 38.61264 28.93110 34400 ft 447 kts 79°
2026-04-28 20:04 38.61664 28.97060 34639 ft 448 kts 79°
2026-04-28 20:04 38.62056 29.00975 34881 ft 449 kts 79°
2026-04-28 20:04 38.62452 29.04950 35067 ft 451 kts 79°
2026-04-28 20:05 38.62847 29.08936 35292 ft 452 kts 79°
2026-04-28 20:05 38.63241 29.12927 35527 ft 453 kts 79°
2026-04-28 20:05 38.63635 29.16927 35744 ft 454 kts 79°
2026-04-28 20:05 38.64029 29.20941 35952 ft 455 kts 79°
2026-04-28 20:06 38.64423 29.24958 36167 ft 456 kts 79°
2026-04-28 20:06 38.64817 29.28987 36375 ft 456 kts 80°
2026-04-28 20:06 38.65211 29.33030 36567 ft 457 kts 80°
2026-04-28 20:06 38.65602 29.37066 36761 ft 458 kts 80°
2026-04-28 20:07 38.65994 29.41119 36941 ft 459 kts 80°
2026-04-28 20:07 38.66808 29.49203 37042 ft 461 kts 79°
2026-04-28 20:08 38.67816 29.57288 37048 ft 459 kts 78°
2026-04-28 20:08 38.68874 29.65346 37047 ft 459 kts 78°
2026-04-28 20:09 38.69915 29.73426 37054 ft 460 kts 78°
2026-04-28 20:09 38.70936 29.81509 37057 ft 460 kts 78°
2026-04-28 20:10 38.71945 29.89592 37062 ft 459 kts 78°
2026-04-28 20:10 38.72945 29.97658 37074 ft 459 kts 78°
2026-04-28 20:11 38.73980 30.05723 37077 ft 458 kts 78°
2026-04-28 20:11 38.75057 30.13773 37084 ft 458 kts 78°
2026-04-28 20:12 38.76130 30.21816 37082 ft 458 kts 78°
2026-04-28 20:12 38.77192 30.29860 37084 ft 458 kts 78°
2026-04-28 20:13 38.78245 30.37907 37082 ft 458 kts 78°
2026-04-28 20:13 38.79292 30.45961 37079 ft 458 kts 78°
2026-04-28 20:14 38.80479 30.53964 37080 ft 455 kts 71°
2026-04-28 20:14 38.82684 30.61537 37081 ft 453 kts 65°
2026-04-28 20:15 38.85120 30.68932 37080 ft 453 kts 64°
2026-04-28 20:15 38.87621 30.76359 37076 ft 453 kts 64°
2026-04-28 20:16 38.90109 30.83801 37079 ft 453 kts 64°
2026-04-28 20:16 38.92582 30.91266 37083 ft 454 kts 64°
2026-04-28 20:17 38.95046 30.98739 37080 ft 454 kts 64°
2026-04-28 20:17 38.97500 31.06207 37089 ft 454 kts 64°
2026-04-28 20:18 38.99978 31.13764 37082 ft 454 kts 64°
2026-04-28 20:18 39.02451 31.21323 37078 ft 454 kts 64°
2026-04-28 20:19 39.04915 31.28874 37074 ft 454 kts 65°
2026-04-28 20:19 39.07353 31.36366 37075 ft 454 kts 65°
2026-04-28 20:20 39.09803 31.43917 37074 ft 454 kts 65°
2026-04-28 20:20 39.12236 31.51435 37076 ft 454 kts 65°
2026-04-28 20:21 39.14676 31.58993 37066 ft 455 kts 65°
2026-04-28 20:21 39.17086 31.66480 37065 ft 455 kts 65°
2026-04-28 20:22 39.19519 31.74057 37062 ft 455 kts 65°
2026-04-28 20:22 39.21931 31.81591 37059 ft 455 kts 65°
2026-04-28 20:23 39.24325 31.89096 37049 ft 455 kts 65°
2026-04-28 20:23 39.26729 31.96657 37042 ft 455 kts 65°
2026-04-28 20:24 39.29118 32.04192 37043 ft 455 kts 65°
2026-04-28 20:24 39.31131 32.10556 37037 ft 455 kts 65°
2026-04-28 20:25 39.33520 32.18126 37036 ft 455 kts 65°
2026-04-28 20:25 39.35919 32.25752 37038 ft 455 kts 66°
2026-04-28 20:26 39.38853 32.32946 37035 ft 450 kts 50°
2026-04-28 20:26 39.40914 32.35955 37038 ft 446 kts 39°
2026-04-28 20:26 39.43345 32.38408 37037 ft 442 kts 29°
2026-04-28 20:27 39.48587 32.42216 37037 ft 441 kts 24°
2026-04-28 20:27 39.54298 32.45934 37039 ft 441 kts 23°
2026-04-28 20:28 39.59786 32.49484 37038 ft 441 kts 24°
2026-04-28 20:28 39.65278 32.53094 37030 ft 442 kts 24°
2026-04-28 20:29 39.70754 32.56728 37034 ft 442 kts 24°
2026-04-28 20:29 39.76226 32.60374 37034 ft 442 kts 24°
2026-04-28 20:30 39.81694 32.64021 37035 ft 442 kts 24°
2026-04-28 20:30 39.87175 32.67682 37039 ft 442 kts 24°
2026-04-28 20:31 39.92640 32.71339 37038 ft 442 kts 24°
2026-04-28 20:31 39.98118 32.75011 37038 ft 442 kts 24°
2026-04-28 20:32 40.03613 32.78734 37036 ft 443 kts 27°
2026-04-28 20:32 40.08453 32.83773 37049 ft 450 kts 46°
2026-04-28 20:33 40.12417 32.90052 37047 ft 452 kts 50°
2026-04-28 20:33 40.16224 32.96622 37048 ft 453 kts 51°
2026-04-28 20:34 40.19990 33.03236 37048 ft 454 kts 53°
2026-04-28 20:34 40.22747 33.10671 37047 ft 459 kts 73°
2026-04-28 20:34 40.23345 33.14800 37045 ft 460 kts 84°
2026-04-28 20:35 40.23338 33.19041 37048 ft 461 kts 93°
2026-04-28 20:35 40.22664 33.27407 37037 ft 462 kts 97°
2026-04-28 20:36 40.21772 33.35703 37034 ft 463 kts 97°
2026-04-28 20:36 40.20869 33.44134 37023 ft 463 kts 97°
2026-04-28 20:37 40.20011 33.52460 37010 ft 463 kts 97°
2026-04-28 20:37 40.19158 33.60853 37011 ft 463 kts 97°
2026-04-28 20:38 40.18301 33.69253 37003 ft 463 kts 97°
2026-04-28 20:38 40.17441 33.77605 37005 ft 463 kts 97°
2026-04-28 20:39 40.16526 33.85952 36995 ft 463 kts 99°
2026-04-28 20:39 40.15391 33.94292 36992 ft 463 kts 100°
2026-04-28 20:40 40.14345 34.02710 36992 ft 463 kts 98°
2026-04-28 20:40 40.13447 34.11043 36994 ft 463 kts 97°
2026-04-28 20:41 40.12563 34.19373 37000 ft 463 kts 98°
2026-04-28 20:41 40.11660 34.27709 36996 ft 463 kts 98°
2026-04-28 20:42 40.10898 34.34628 36997 ft 463 kts 98°
2026-04-28 20:42 40.09972 34.42954 36998 ft 463 kts 98°
2026-04-28 20:43 40.09040 34.51277 37008 ft 463 kts 98°
2026-04-28 20:43 40.08103 34.59600 36726 ft 463 kts 98°
2026-04-28 20:43 40.07634 34.63748 36175 ft 463 kts 98°
2026-04-28 20:44 40.07154 34.67975 35447 ft 466 kts 98°
2026-04-28 20:44 40.06674 34.72184 34717 ft 470 kts 98°
2026-04-28 20:44 40.06190 34.76422 33992 ft 473 kts 99°
2026-04-28 20:44 40.05701 34.80689 33107 ft 477 kts 98°
2026-04-28 20:45 40.05207 34.84974 32450 ft 476 kts 98°
2026-04-28 20:45 40.04717 34.89229 31928 ft 472 kts 99°
2026-04-28 20:45 40.04228 34.93449 31379 ft 469 kts 99°
2026-04-28 20:45 40.03742 34.97639 30826 ft 466 kts 99°
2026-04-28 20:46 40.03255 35.01816 30264 ft 464 kts 99°
2026-04-28 20:46 40.02769 35.05972 29628 ft 462 kts 99°
2026-04-28 20:46 40.02285 35.10088 29032 ft 458 kts 99°
2026-04-28 20:46 40.01802 35.14193 28465 ft 454 kts 99°
2026-04-28 20:47 40.01323 35.18250 27895 ft 451 kts 99°
2026-04-28 20:47 40.00847 35.22271 27360 ft 447 kts 99°
2026-04-28 20:47 40.00373 35.26264 26806 ft 444 kts 99°
2026-04-28 20:47 39.99901 35.30228 26255 ft 439 kts 99°
2026-04-28 20:48 39.99434 35.34140 25632 ft 431 kts 99°
2026-04-28 20:48 39.98974 35.37900 25102 ft 421 kts 99°
2026-04-28 20:48 39.98508 35.41624 24603 ft 411 kts 99°
2026-04-28 20:48 39.98048 35.45270 24075 ft 402 kts 99°
2026-04-28 20:49 39.97598 35.48830 23533 ft 395 kts 99°
2026-04-28 20:49 39.97156 35.52329 22949 ft 387 kts 99°
2026-04-28 20:49 39.96722 35.55752 22440 ft 378 kts 100°
2026-04-28 20:49 39.96296 35.59104 21939 ft 371 kts 100°
2026-04-28 20:50 39.95879 35.62381 21460 ft 363 kts 100°
2026-04-28 20:50 39.95468 35.65597 20974 ft 357 kts 100°
2026-04-28 20:50 39.95061 35.68784 20509 ft 355 kts 100°
2026-04-28 20:50 39.94653 35.71964 20038 ft 356 kts 100°
2026-04-28 20:51 39.94244 35.75149 19548 ft 358 kts 100°
2026-04-28 20:51 39.93831 35.78352 19052 ft 359 kts 99°
2026-04-28 20:51 39.93416 35.81568 18575 ft 360 kts 99°
2026-04-28 20:51 39.93018 35.84786 18156 ft 359 kts 97°
2026-04-28 20:52 39.93014 35.88002 17648 ft 362 kts 80°
2026-04-28 20:52 39.93872 35.91094 16785 ft 368 kts 57°
2026-04-28 20:52 39.95593 35.93543 15995 ft 366 kts 35°
2026-04-28 20:52 39.97852 35.94999 15149 ft 361 kts 17°
2026-04-28 20:53 40.02646 35.96472 13722 ft 349 kts
2026-04-28 20:53 40.05037 35.96961 12837 ft 346 kts
2026-04-28 20:53 40.07404 35.97417 12030 ft 342 kts
2026-04-28 20:54 40.09743 35.97884 11285 ft 338 kts
2026-04-28 20:54 40.12058 35.98375 10524 ft 335 kts
2026-04-28 20:54 40.14344 35.98886 9788 ft 331 kts
2026-04-28 20:54 40.16509 35.99670 9389 ft 317 kts 24°
2026-04-28 20:55 40.18339 36.01150 8996 ft 305 kts 34°
2026-04-28 20:55 40.20017 36.02824 8296 ft 303 kts 37°
2026-04-28 20:55 40.21651 36.04572 7542 ft 303 kts 40°
2026-04-28 20:55 40.23098 36.06566 6791 ft 303 kts 53°
2026-04-28 20:56 40.24145 36.08951 6124 ft 300 kts 65°
2026-04-28 20:56 40.24915 36.11423 5773 ft 285 kts 69°
2026-04-28 20:56 40.25558 36.13767 5711 ft 262 kts 70°
2026-04-28 20:56 40.26143 36.15913 5702 ft 240 kts 70°
2026-04-28 20:57 40.26673 36.17872 5711 ft 217 kts 70°
2026-04-28 20:57 40.27155 36.19668 5410 ft 204 kts 70°
2026-04-28 20:57 40.27641 36.21420 4955 ft 199 kts 70°
2026-04-28 20:57 40.28100 36.23080 4602 ft 189 kts 70°
2026-04-28 20:58 40.28533 36.24656 4309 ft 178 kts 70°
2026-04-28 20:58 40.28939 36.26127 4013 ft 166 kts 70°
2026-04-28 20:58 40.29320 36.27509 3742 ft 158 kts 69°
2026-04-28 20:58 40.29683 36.28828 3469 ft 151 kts 69°
2026-04-28 20:59 40.30027 36.30076 3252 ft 140 kts 70°
2026-04-28 20:59 40.30349 36.31245 3048 ft 135 kts 69°
2026-04-28 20:59 40.30667 36.32399 2859 ft 134 kts 69°
2026-04-28 20:59 40.30984 36.33551 2668 ft 134 kts 69°
2026-04-28 21:00 40.31303 36.34707 2472 ft 135 kts 69°
2026-04-28 21:00 40.31619 36.35862 2260 ft 134 kts 69°
2026-04-28 21:00 40.31931 36.37000 2057 ft 132 kts 69°
2026-04-28 21:00 40.32242 36.38152 1931 ft 127 kts 70°
2026-04-28 21:01 40.32511 36.39112 1920 ft 91 kts 71°
2026-04-28 21:01 40.32664 36.39677 1919 ft 44 kts 70°
2026-04-28 21:01 40.32768 36.40065 1920 ft 41 kts 70°
2026-04-28 21:01 40.32846 36.40344 1922 ft 18 kts 70°
2026-04-28 21:02 40.32919 36.40442 1925 ft 12 kts 46°
2026-04-28 21:02 40.32892 36.40495 1926 ft 8 kts 206°
2026-04-28 21:02 40.32870 36.40436 1926 ft 8 kts 251°
2026-04-28 21:02 40.32853 36.40372 1923 ft 14 kts 250°
2026-04-28 21:03 40.32804 36.40191 1920 ft 28 kts 250°
2026-04-28 21:03 40.32735 36.39940 1919 ft 29 kts 250°
2026-04-28 21:03 40.32667 36.39688 1919 ft 29 kts 250°
2026-04-28 21:03 40.32577 36.39356 1919 ft 29 kts 250°
2026-04-28 21:04 40.32510 36.39110 1920 ft 28 kts 250°
2026-04-28 21:04 40.32444 36.38867 1920 ft 29 kts 250°
2026-04-28 21:04 40.32398 36.38699 1917 ft 29 kts 250°
2026-04-28 21:04 40.32331 36.38451 1921 ft 29 kts 250°
2026-04-28 21:05 40.32264 36.38208 1918 ft 28 kts 250°
2026-04-28 21:05 40.32212 36.38015 1918 ft 12 kts 250°
2026-04-28 21:05 40.32156 36.37963 1919 ft 10 kts 177°
2026-04-28 21:05 40.32089 36.37992 1918 ft 11 kts 160°
2026-04-28 21:06 40.32014 36.38028 1922 ft 12 kts 160°
2026-04-28 21:06 40.31955 36.38075 1923 ft 9 kts 126°
2026-04-28 21:06 40.31910 36.38102 1923 ft 5 kts 161°
2026-04-28 21:06 40.31901 36.38107 1923 ft 0 kts 160°